Regional Weather Roundup
Issued by NWS Green Bay, WI

Home | Current Version | Previous Version | Graphics & Text | Print | Product List | Glossary On
Versions: 1 2 3 4 5 6 7 8 9 10 11 12 13 14 15 16 17 18 19 20 21 22 23 24 25 26 27 28 29 30 31 32 33 34 35 36 37 38 39 40 41 42 43 44 45 46 47 48 49 50
000
ASUS43 KGRB 261211
RWRGRB

NORTH-CENTRAL AND NORTHEAST WISCONSIN REGIONAL WEATHER ROUNDUP
NATIONAL WEATHER SERVICE GREEN BAY WI
700 AM CDT WED APR 26 2017

WIZ005-009-010>012-018-019-261300-
NORTH CENTRAL WISCONSIN

CITY           SKY/WX    TMP DP  RH WIND       PRES   REMARKS
IRONWOOD       MIX PCPN  32  31  96 NE7       29.56F FOG
MANITOWISH WTR LGT RAIN  34  34 100 NE6       29.51S
ARBOR VITAE    LGT RAIN  39  38  94 NE5       29.48S
EAGLE RIVER    LGT RAIN  40  40 100 NE8       29.49S
LAND O LAKES   LGT RAIN  37  37  99 NE8       29.53S
RHINELANDER    LGT RAIN  47  46  97 NE7       29.46F FOG
PHILLIPS       LGT RAIN  36  36 100 NE12      29.47S
ANTIGO         CLOUDY    49  49 100 E9        29.45F FOG
TOMAHAWK       LGT RAIN  44  43  97 NE3       29.45F
MERRILL        CLOUDY    53  53 100 E7        29.44S
$$

WIZ013-073-261300-
NORTHEAST WISCONSIN

CITY           SKY/WX    TMP DP  RH WIND       PRES   REMARKS
IRON MOUNTAIN  LGT RAIN  49  46  90 NE7       29.50S
MARINETTE      CLOUDY    47  46  97 E8        29.49F
OCONTO         CLOUDY    49  47  95 NE10      29.46F
$$

WIZ017-030-035>037-045-261300-
CENTRAL WISCONSIN

CITY           SKY/WX    TMP DP  RH WIND       PRES   REMARKS
MEDFORD        CLOUDY    47  47  97 NE9       29.41F FOG
WAUSAU         CLOUDY    53  52  96 E8        29.41S FOG
MOSINEE        CLOUDY    54  54 100 E9        29.43S FOG
MARSHFIELD     CLOUDY    56  53  90 E12       29.39F FOG
WISC RAPIDS    LGT RAIN  56  55  97 E8        29.41S FOG
STEVENS POINT  DRIZZLE   53  53 100 E7        29.42S
WAUPACA        CLOUDY    58  56  92 NE3       29.43R
SHAWANO        CLOUDY    52  50  93 E8        29.46S
CLINTONVILLE   PTSUNNY   52  50  93 NE5       29.44R
WAUTOMA        CLOUDY    58  55  90 NE5       29.40F
$$

WIZ038-039-048-051-261300-
FOX VALLEY

CITY           SKY/WX    TMP DP  RH WIND       PRES   REMARKS
NWS GREEN BAY  PTSUNNY   55  54  96 E5        29.45F
APPLETON       PTSUNNY   57  52  82 E5        29.42S
OSHKOSH        CLOUDY    60  53  77 SE10      29.41S
FOND DU LAC    CLOUDY    61  51  70 SE13      29.42S
$$

WIZ022-050-052-261300-
EAST CENTRAL WISCONSIN

CITY           SKY/WX    TMP DP  RH WIND       PRES   REMARKS
EPHRAIM        FAIR      52  51  97 SE9       29.48F
WASHINGTON ISL CLOUDY    46  45  94 CALM      29.50F
STURGEON BAY   MOSUNNY   56  51  84 S15       29.48F
MANITOWOC      CLOUDY    51  47  86 S14       29.48S
SHEBOYGAN      CLOUDY    52  48  86 S10       29.46S
$$

LMZ563-521-522-541>543-261300-
LAKESHORE

STATION/POSITION TIME  TEMP    WIND        PRES    VSBY  WAVE
                       AIR SEA DIR/SP/G                  HT/PER
                 (UTC) (F)     (DEG/KT/KT) (MB)    (MI)  (FT/S)
SHEBOYGAN LKSHOR 1200   47     170/ 11/ 13  997.8F
KEWAUNEE LKSHORE 1148   53     180/ 15/ 20  998.1F
NORTHPORT PIER   1140   42     140/  3/  6  999.7F
N MID LAKE BUOY  1150   42 37  110/ 12/ 14 1000.6F         2/ 3
SISTER BAY LKSHO 1121   49     110/  7/  9   N/A
CHAMBERS ISLAND  1140   40      10/  7/ 10  999.0F
MENOMINEE LKSHOR 1148   43      30/ 16/ 20  997.9F
$$




USA.gov is the U.S. government's official web portal to all federal, state and local government web resources and services.